Regional Weather Roundup
Issued by NWS

Home | Current Version | Previous Version | Text Only | Print | Product List | Glossary On
Versions: 1 2 3 4 5 6 7 8 9 10 11 12 13 14 15 16 17 18 19 20 21 22 23 24 25 26 27 28 29 30 31 32 33 34 35 36 37 38 39 40 41 42 43 44 45 46 47 48 49 50
000
ASUS43 KTOP 280559
RWRKS

WEATHER ROUNDUP FOR KANSAS
NATIONAL WEATHER SERVICE GOODLAND KS
100 AM CDT SUN MAY 28 2017

NOTE:  "FAIR" INDICATES FEW OR NO CLOUDS BELOW 12,000 FEET WITH NO
SIGNIFICANT WEATHER AND/OR OBSTRUCTIONS TO VISIBILITY.

KSZ001>006-013>018-027>032-041>047-280700-
NORTHWEST KANSAS

CITY           SKY/WX    TMP DP  RH WIND       PRES   REMARKS
GOODLAND       CLEAR     50  47  89 NW10      30.15S
6HR MIN TEMP:  50; 6HR MAX TEMP:  56; 6HR PCP: TRACE;

HAYS           CLOUDY    61  56  83 NW9       30.04S
HILL CITY      PTCLDY    56  52  86 NW10      30.06F
6HR MIN TEMP:  56; 6HR MAX TEMP:  70;

RUSSELL        PTCLDY    59  55  87 NW9       30.00S
6HR MIN TEMP:  59; 6HR MAX TEMP:  71; 6HR PCP: TRACE;

$$

KSZ061>065-074>080-084>089-280700-
SOUTHWEST KANSAS

CITY           SKY/WX    TMP DP  RH WIND       PRES   REMARKS
DODGE CITY     CLOUDY    56  51  84 NW15      30.06F
6HR MIN TEMP:  56; 6HR MAX TEMP:  74; 6HR PCP:  0.05;

ELKHART          N/A     52  40  64 MISG        N/A
GARDEN CITY    CLOUDY    54  51  90 NW13      30.09F
6HR MIN TEMP:  54; 6HR MAX TEMP:  69; 6HR PCP:  0.05;

GREAT BEND     CLOUDY    63  56  78 NW8       30.02R
LIBERAL        PTCLDY    56  50  80 N13       30.06S
$$

KSZ066>073-081>083-090>101-280700-
SOUTHEAST KANSAS

CITY           SKY/WX    TMP DP  RH WIND       PRES   REMARKS
CHANUTE        CLOUDY    65  60  84 NW5       29.89R
6HR MIN TEMP:  65; 6HR MAX TEMP:  79;

COFFEYVILLE    CLOUDY    67  64  90 N8        29.86F
6HR MIN TEMP:  67; 6HR MAX TEMP:  81;

HUTCHINSON     CLOUDY    64  57  78 NW7       29.99R
6HR MIN TEMP:  64; 6HR MAX TEMP:  75;

MEDICINE LODGE   N/A     67  55  65 N10       30.00F
NEWTON         MOCLDY    63  60  90 NW8       29.99R
PARSONS        CLOUDY    66  59  78 N3        29.88F
6HR MIN TEMP:  66; 6HR MAX TEMP:  81;

WICHITA INTL   CLOUDY    67  61  81 NW7       29.99R
6HR MIN TEMP:  67; 6HR MAX TEMP:  78;

WICHITA JABRA  CLOUDY    65  62  90 NW9       29.98R
6HR MIN TEMP:  64; 6HR MAX TEMP:  76;

WINFIELD       CLOUDY    69  62  78 NW12      29.98R
6HR MIN TEMP:  69; 6HR MAX TEMP:  79;

$$

KSZ007>012-019>026-033>040-048>060-102>105-280700-
NORTHEAST KANSAS

CITY           SKY/WX    TMP DP  RH WIND       PRES   REMARKS
CONCORDIA      MOCLDY    61  55  81 NW9       29.97F
6HR MIN TEMP:  61; 6HR MAX TEMP:  73;

EMPORIA        PTCLDY    63  61  93 NW10      29.93R
6HR MIN TEMP:  62; 6HR MAX TEMP:  77;

LAWRENCE       MOCLDY    63  62  97 NW5       29.89R
6HR MIN TEMP:  63; 6HR MAX TEMP:  75;

MANHATTAN      CLEAR     60  59  96 CALM      29.96R
6HR MIN TEMP:  60; 6HR MAX TEMP:  74;

OLATHE IND     CLOUDY    64  61  90 N8        29.89R
6HR MIN TEMP:  63; 6HR MAX TEMP:  72;

OLATHE EXE     CLOUDY    65  62  90 N8        29.88R
6HR MIN TEMP:  65; 6HR MAX TEMP:  70;

SALINA         PTCLDY    63  57  81 NW8       29.99R
6HR MIN TEMP:  63; 6HR MAX TEMP:  77;

TOPEKA BILLARD MOCLDY    63  62  97 NW9       29.91R
6HR MIN TEMP:  63; 6HR MAX TEMP:  75;

TOPEKA FORBES  MOCLDY    64  61  90 NW9       29.91R
6HR MIN TEMP:  63; 6HR MAX TEMP:  77;

$$



USA.gov is the U.S. government's official web portal to all federal, state and local government web resources and services.